LHX4RP EDDB-EDDM

Flight info

Callsign LHX4RP
Flight time 0h 47m
Altitude 28000
Route LUROS4N LUROS Y211 BEBKU Z36 MAREM DCT VESUB T106 TUSTO T108 LANDU LANDU2A
Aircraft A320/M-SDE3FGHIRWY/LB1

Departure

Time 2026-05-01 13:55
Airport Berlin Brandenburg Airport (EDDB)

Arrival

Time 2026-05-01 14:43
Airport Munich Airport (EDDM)
Time Latitude Longitude Altitude Speed Heading
2026-05-01 13:41 52.36173 13.50725 155 ft 0 kts 69°
2026-05-01 13:46 52.36171 13.50713 154 ft 4 kts 69°
2026-05-01 13:47 52.36161 13.50673 154 ft 4 kts 69°
2026-05-01 13:47 52.36154 13.50641 154 ft 4 kts 69°
2026-05-01 13:47 52.36145 13.50602 154 ft 4 kts 72°
2026-05-01 13:47 52.36141 13.50561 154 ft 4 kts 104°
2026-05-01 13:48 52.36153 13.50523 154 ft 4 kts 133°
2026-05-01 13:48 52.36173 13.50495 154 ft 4 kts 149°
2026-05-01 13:48 52.36196 13.50476 154 ft 2 kts 159°
2026-05-01 13:48 52.36198 13.50475 154 ft 0 kts 159°
2026-05-01 13:51 52.36196 13.50476 154 ft 2 kts 159°
2026-05-01 13:51 52.36165 13.50495 154 ft 8 kts 159°
2026-05-01 13:51 52.36111 13.50529 154 ft 8 kts 159°
2026-05-01 13:51 52.36064 13.50559 154 ft 7 kts 158°
2026-05-01 13:52 52.36025 13.50584 154 ft 6 kts 159°
2026-05-01 13:52 52.35964 13.50623 154 ft 11 kts 159°
2026-05-01 13:52 52.35901 13.50686 154 ft 10 kts 129°
2026-05-01 13:52 52.35853 13.50771 154 ft 11 kts 150°
2026-05-01 13:53 52.35781 13.50818 154 ft 11 kts 160°
2026-05-01 13:53 52.35649 13.50780 154 ft 12 kts 219°
2026-05-01 13:53 52.35582 13.50691 154 ft 14 kts 219°
2026-05-01 13:54 52.35503 13.50586 154 ft 16 kts 219°
2026-05-01 13:54 52.35413 13.50472 154 ft 14 kts 217°
2026-05-01 13:54 52.35391 13.50417 154 ft 4 kts 250°
2026-05-01 13:54 52.35355 13.50253 154 ft 41 kts 250°
2026-05-01 13:55 52.35162 13.49450 154 ft 109 kts 249°
2026-05-01 13:55 52.34818 13.48014 157 ft 160 kts 249°
2026-05-01 13:55 52.34406 13.46278 719 ft 164 kts 247°
2026-05-01 13:55 52.33832 13.44646 1415 ft 168 kts 234°
2026-05-01 13:56 52.33054 13.43183 2025 ft 177 kts 228°
2026-05-01 13:56 52.32174 13.41598 2414 ft 199 kts 229°
2026-05-01 13:56 52.31098 13.40036 2791 ft 220 kts 207°
2026-05-01 13:56 52.29537 13.39585 3254 ft 242 kts 169°
2026-05-01 13:57 52.27904 13.40426 3901 ft 258 kts 159°
2026-05-01 13:57 52.26184 13.41436 4723 ft 265 kts 159°
2026-05-01 13:57 52.24447 13.42455 5671 ft 269 kts 159°
2026-05-01 13:57 52.22665 13.43498 6694 ft 272 kts 158°
2026-05-01 13:58 52.20872 13.44542 7577 ft 276 kts 158°
2026-05-01 13:58 52.19052 13.45598 8472 ft 280 kts 158°
2026-05-01 13:58 52.17197 13.46671 9332 ft 284 kts 158°
2026-05-01 13:58 52.15322 13.47751 10208 ft 289 kts 158°
2026-05-01 13:59 52.13385 13.48869 10775 ft 304 kts 158°
2026-05-01 13:59 52.11342 13.50050 11053 ft 328 kts 158°
2026-05-01 13:59 52.09126 13.51326 11405 ft 346 kts 158°
2026-05-01 13:59 52.06829 13.52639 12062 ft 353 kts 158°
2026-05-01 14:00 52.04500 13.53965 12774 ft 357 kts 158°
2026-05-01 14:00 52.02137 13.55304 13534 ft 362 kts 158°
2026-05-01 14:00 51.99746 13.56658 14258 ft 366 kts 157°
2026-05-01 14:00 51.97333 13.58025 14910 ft 370 kts 157°
2026-05-01 14:01 51.94898 13.59407 15601 ft 373 kts 157°
2026-05-01 14:01 51.92475 13.60784 16242 ft 376 kts 157°
2026-05-01 14:01 51.89992 13.62198 16885 ft 380 kts 157°
2026-05-01 14:01 51.87493 13.63620 17537 ft 383 kts 157°
2026-05-01 14:02 51.84966 13.65054 18163 ft 387 kts 157°
2026-05-01 14:02 51.82406 13.66503 18767 ft 391 kts 157°
2026-05-01 14:02 51.79825 13.67961 19295 ft 394 kts 157°
2026-05-01 14:02 51.77226 13.69426 19814 ft 397 kts 157°
2026-05-01 14:03 51.74604 13.70901 20342 ft 401 kts 157°
2026-05-01 14:03 51.71955 13.72387 20836 ft 405 kts 157°
2026-05-01 14:03 51.69320 13.73869 21344 ft 408 kts 157°
2026-05-01 14:03 51.66628 13.75381 21835 ft 411 kts 157°
2026-05-01 14:04 51.63915 13.76905 22320 ft 415 kts 157°
2026-05-01 14:04 51.61179 13.78437 22821 ft 418 kts 157°
2026-05-01 14:04 51.58424 13.79977 23296 ft 421 kts 157°
2026-05-01 14:04 51.56588 13.81001 23602 ft 423 kts 157°
2026-05-01 14:05 51.52848 13.83088 24183 ft 427 kts 157°
2026-05-01 14:05 51.50030 13.84654 24572 ft 430 kts 158°
2026-05-01 14:05 51.47100 13.85799 24951 ft 438 kts 168°
2026-05-01 14:05 51.44087 13.86160 25318 ft 444 kts 178°
2026-05-01 14:06 51.40996 13.85712 25684 ft 449 kts 188°
2026-05-01 14:06 51.37912 13.84804 26058 ft 452 kts 188°
2026-05-01 14:06 51.34812 13.83899 26437 ft 454 kts 188°
2026-05-01 14:06 51.31697 13.83001 26809 ft 456 kts 188°
2026-05-01 14:07 51.28563 13.82102 27184 ft 459 kts 188°
2026-05-01 14:07 51.25413 13.81199 27549 ft 461 kts 188°
2026-05-01 14:07 51.22250 13.80295 27905 ft 463 kts 188°
2026-05-01 14:08 51.15876 13.78478 28368 ft 465 kts 188°
2026-05-01 14:08 51.09569 13.76673 28382 ft 462 kts 188°
2026-05-01 14:09 51.03237 13.74865 28385 ft 462 kts 188°
2026-05-01 14:09 50.96903 13.73073 28384 ft 463 kts 188°
2026-05-01 14:10 50.90557 13.71281 28383 ft 463 kts 189°
2026-05-01 14:10 50.84366 13.68675 28379 ft 464 kts 195°
2026-05-01 14:11 50.78161 13.65861 28370 ft 464 kts 195°
2026-05-01 14:11 50.68848 13.61641 28367 ft 464 kts 195°
2026-05-01 14:12 50.62682 13.58561 28363 ft 465 kts 197°
2026-05-01 14:12 50.56575 13.55417 28364 ft 465 kts 197°
2026-05-01 14:13 50.51452 13.52836 28371 ft 465 kts 197°
2026-05-01 14:13 50.44236 13.49277 28380 ft 465 kts 196°
2026-05-01 14:14 50.38058 13.46233 28384 ft 465 kts 196°
2026-05-01 14:14 50.31933 13.43203 28375 ft 465 kts 196°
2026-05-01 14:15 50.25767 13.40169 28378 ft 465 kts 196°
2026-05-01 14:15 50.19593 13.37154 28379 ft 465 kts 196°
2026-05-01 14:16 50.13425 13.34136 28377 ft 465 kts 196°
2026-05-01 14:16 50.07293 13.31129 28388 ft 465 kts 196°
2026-05-01 14:17 50.01116 13.28121 28396 ft 465 kts 196°
2026-05-01 14:17 49.94935 13.25129 28385 ft 465 kts 196°
2026-05-01 14:18 49.88755 13.22152 28391 ft 465 kts 196°
2026-05-01 14:18 49.83618 13.19676 28380 ft 465 kts 196°
2026-05-01 14:19 49.76437 13.16214 28372 ft 465 kts 196°
2026-05-01 14:19 49.70250 13.13243 28366 ft 465 kts 196°
2026-05-01 14:20 49.60968 13.08808 28381 ft 465 kts 196°
2026-05-01 14:21 49.54823 13.05877 28381 ft 465 kts 196°
2026-05-01 14:21 49.48642 13.02932 28374 ft 465 kts 196°
2026-05-01 14:22 49.39492 12.97980 28369 ft 466 kts 205°
2026-05-01 14:22 49.33680 12.93726 28367 ft 466 kts 205°
2026-05-01 14:23 49.27825 12.89469 28370 ft 466 kts 205°
2026-05-01 14:23 49.21972 12.85221 27755 ft 466 kts 205°
2026-05-01 14:24 49.19031 12.83092 26962 ft 466 kts 205°
2026-05-01 14:24 49.16116 12.80985 26321 ft 461 kts 204°
2026-05-01 14:24 49.13224 12.78898 25671 ft 458 kts 204°
2026-05-01 14:24 49.10392 12.76857 25031 ft 455 kts 204°
2026-05-01 14:25 49.07543 12.74800 24393 ft 452 kts 204°
2026-05-01 14:25 49.04714 12.72756 23728 ft 449 kts 204°
2026-05-01 14:25 49.01906 12.70726 23095 ft 444 kts 204°
2026-05-01 14:25 48.99134 12.68729 22515 ft 438 kts 204°
2026-05-01 14:26 48.96396 12.66759 21971 ft 433 kts 204°
2026-05-01 14:26 48.91013 12.62908 20944 ft 422 kts 204°
2026-05-01 14:26 48.88368 12.61023 20445 ft 417 kts 204°
2026-05-01 14:27 48.85755 12.59165 19960 ft 412 kts 203°
2026-05-01 14:27 48.83204 12.57356 19491 ft 408 kts 203°
2026-05-01 14:27 48.80640 12.55543 18992 ft 406 kts 203°
2026-05-01 14:28 48.75525 12.52080 17944 ft 398 kts 197°
2026-05-01 14:28 48.72924 12.50675 17411 ft 395 kts 197°
2026-05-01 14:28 48.70338 12.49280 16872 ft 393 kts 197°
2026-05-01 14:28 48.67762 12.47893 16329 ft 392 kts 198°
2026-05-01 14:29 48.65298 12.46132 15778 ft 393 kts 211°
2026-05-01 14:29 48.63163 12.43552 15205 ft 394 kts 225°
2026-05-01 14:30 48.59595 12.32547 13380 ft 394 kts 249°
2026-05-01 14:30 48.58176 12.29142 13247 ft 378 kts 225°
2026-05-01 14:30 48.56159 12.26754 13060 ft 363 kts 208°
2026-05-01 14:31 48.51538 12.24240 12462 ft 350 kts 198°
2026-05-01 14:31 48.49475 12.22311 12374 ft 353 kts 224°
2026-05-01 14:31 48.48166 12.19285 12244 ft 352 kts 251°
2026-05-01 14:31 48.47656 12.15695 12049 ft 350 kts 262°
2026-05-01 14:32 48.47346 12.12091 11866 ft 341 kts 264°
2026-05-01 14:32 48.47108 12.08597 11713 ft 331 kts 265°
2026-05-01 14:32 48.46896 12.05209 11458 ft 318 kts 266°
2026-05-01 14:32 48.46687 12.01917 11213 ft 314 kts 265°
2026-05-01 14:33 48.46466 11.98667 10970 ft 310 kts 265°
2026-05-01 14:33 48.46234 11.95447 10728 ft 306 kts 264°
2026-05-01 14:33 48.46006 11.92370 10450 ft 296 kts 264°
2026-05-01 14:33 48.45778 11.89307 10158 ft 293 kts 264°
2026-05-01 14:34 48.45548 11.86278 9835 ft 289 kts 264°
2026-05-01 14:34 48.45318 11.83281 9521 ft 287 kts 264°
2026-05-01 14:34 48.45090 11.80313 9201 ft 284 kts 264°
2026-05-01 14:34 48.44863 11.77383 8909 ft 280 kts 263°
2026-05-01 14:35 48.44636 11.74490 8661 ft 275 kts 263°
2026-05-01 14:35 48.44413 11.71656 8407 ft 270 kts 263°
2026-05-01 14:35 48.44200 11.68919 8153 ft 264 kts 263°
2026-05-01 14:35 48.43988 11.66205 7906 ft 259 kts 263°
2026-05-01 14:36 48.43780 11.63536 7655 ft 254 kts 263°
2026-05-01 14:36 48.43576 11.60911 7413 ft 252 kts 262°
2026-05-01 14:36 48.43373 11.58305 7166 ft 250 kts 262°
2026-05-01 14:36 48.43170 11.55720 6922 ft 247 kts 263°
2026-05-01 14:37 48.42972 11.53176 6675 ft 243 kts 261°
2026-05-01 14:37 48.42702 11.50663 6420 ft 243 kts 250°
2026-05-01 14:37 48.41873 11.48498 6165 ft 238 kts 223°
2026-05-01 14:37 48.40553 11.47144 5927 ft 232 kts 195°
2026-05-01 14:38 48.39002 11.46794 5682 ft 223 kts 170°
2026-05-01 14:38 48.37544 11.47413 5425 ft 216 kts 152°
2026-05-01 14:38 48.36213 11.48444 5186 ft 214 kts 140°
2026-05-01 14:38 48.35180 11.50037 4923 ft 213 kts 121°
2026-05-01 14:39 48.34590 11.52055 4700 ft 211 kts 102°
2026-05-01 14:39 48.34503 11.54230 4445 ft 207 kts 84°
2026-05-01 14:39 48.34672 11.56358 4181 ft 202 kts 83°
2026-05-01 14:39 48.34837 11.58411 3925 ft 194 kts 83°
2026-05-01 14:40 48.34996 11.60404 3687 ft 188 kts 83°
2026-05-01 14:40 48.35143 11.62275 3444 ft 176 kts 83°
2026-05-01 14:40 48.35281 11.64018 3206 ft 159 kts 83°
2026-05-01 14:40 48.35402 11.65568 3029 ft 142 kts 82°
2026-05-01 14:41 48.35506 11.66896 2838 ft 138 kts 84°
2026-05-01 14:41 48.35617 11.68313 2649 ft 136 kts 84°
2026-05-01 14:41 48.35726 11.69714 2491 ft 134 kts 82°
2026-05-01 14:41 48.35837 11.71126 2270 ft 137 kts 84°
2026-05-01 14:42 48.35943 11.72522 2040 ft 134 kts 85°
2026-05-01 14:42 48.36057 11.73925 1862 ft 139 kts 83°
2026-05-01 14:42 48.36163 11.75326 1690 ft 138 kts 84°
2026-05-01 14:42 48.36273 11.76735 1521 ft 135 kts 84°
2026-05-01 14:43 48.36371 11.78019 1486 ft 108 kts 83°
2026-05-01 14:43 48.36438 11.78880 1471 ft 58 kts 83°
2026-05-01 14:43 48.36446 11.79252 1475 ft 24 kts 107°
2026-05-01 14:43 48.36386 11.79476 1480 ft 23 kts 114°
2026-05-01 14:44 48.36325 11.79691 1483 ft 22 kts 114°
2026-05-01 14:44 48.36292 11.79786 1478 ft 0 kts 129°
2026-05-01 14:45 48.36284 11.79801 1471 ft 5 kts 130°
2026-05-01 14:46 48.36244 11.79781 1471 ft 10 kts 234°
2026-05-01 14:46 48.36220 11.79551 1480 ft 10 kts 263°
2026-05-01 14:46 48.36187 11.79471 1483 ft 9 kts 205°
2026-05-01 14:47 48.36133 11.79472 1485 ft 7 kts 174°
2026-05-01 14:47 48.36075 11.79482 1485 ft 10 kts 173°
2026-05-01 14:47 48.36003 11.79494 1472 ft 10 kts 173°
2026-05-01 14:48 48.35902 11.79475 1476 ft 7 kts 222°
2026-05-01 14:48 48.35874 11.79421 1479 ft 6 kts 233°
2026-05-01 14:48 48.35847 11.79316 1473 ft 5 kts 263°
2026-05-01 14:49 48.35841 11.79236 1485 ft 1 kts 263°
2026-05-01 14:49 48.35841 11.79235 1485 ft 0 kts 263°